Location: Newark
(36.1222°N, 100.9183°E)
Time: 23:08:49
(UTC+00:00)

Envisat - Visible Passes

Search period start: 20 March 2019 00:00
Search period end: 30 March 2019 00:00
Orbit: 764 x 766 km, 98.2° (Epoch: 20 March)

Date Brightness Start Highest point End Pass type
(mag) Time Alt. Az. Time Alt. Az. Time Alt. Az.
20 Mar 5.9 13:12:01 10° SW 13:15:10 16° W 13:18:18 10° NW visible
21 Mar 4.5 12:33:28 10° SSW 12:38:10 38° W 12:42:54 10° NNW visible
22 Mar 3.0 11:56:18 10° SSE 12:01:22 90° NE 12:06:28 10° NNW visible
23 Mar 5.6 13:00:03 10° SW 13:03:51 21° W 13:07:40 10° NW visible
24 Mar 4.0 12:22:01 10° S 12:26:55 49° W 12:31:51 10° NNW visible
25 Mar 6.1 13:28:14 10° WSW 13:29:38 11° W 13:31:02 10° WNW visible
26 Mar 5.2 12:48:18 10° SSW 12:52:33 27° W 12:56:50 10° NW visible
27 Mar 3.5 12:10:40 10° S 12:15:41 64° W 12:20:44 10° NNW visible
28 Mar 5.9 13:15:31 10° SW 13:18:18 15° W 13:21:05 10° WNW visible
29 Mar 4.7 12:36:41 10° SSW 12:41:17 34° W 12:45:54 10° NNW visible
